Flag for Hungary Weather past 2 weeks in Sopron, Hungary

Now
46 °F

Passing clouds.


Feels Like: 46 °F
Forecast: 37 / 53 °F
Wind: 2 mph from North

Location: Eisenstadt

Current Time: Apr 18, 2015 at 9:31:52 PM

Latest Report: Apr 18, 2015 at 8:00 PM


Visibility: 13 mi

Pressure: 30.18 "Hg

Humidity: 50%

Dew point: 28 °F

Location of SopronLocation

Historic Weather in Sopron — Graph

°F

Sopron temperature yesterday

Maximum temperature yesterday: 65 °F (at 12:00 AM)
Minimum temperature yesterday: 49 °F (at 11:00 PM)
Average temperature yesterday: 59 °F

Past Weeks' High & Low Weather Summary

 TemperatureHumidityPressure
High81 °F (Apr 16, 2:00 PM)94% (Apr 17, 8:00 PM)30.48 "Hg (Apr 17, 8:00 PM)
Low32 °F (Apr 4, 6:00 AM)15% (Apr 16, 2:00 PM)29.79 "Hg (Apr 17, 5:00 PM)
Average52 °F55%30.17 "Hg
* Reported Apr 3 8:00 PM — Apr 18 8:00 PM, Sopron, Weather by CustomWeather, © 2015

Note: Actual official high and low records may vary slightly from our data, if they occured in-between our weather recording intervals... More about our weather records

Advertising

Sopron weather history for previous 24 hours

 ConditionsComfort  
Time TempWeatherWind HumidityBarometerVisibility
8:00 PM
Sat, Apr 18
46 °FPassing clouds.2 mph50%30.18 "Hg12 mi
7:00 PM49 °FPartly sunny.3 mph42%30.16 "Hg12 mi
6:00 PM49 °FCool.3 mph42%30.15 "HgN/A
5:00 PM50 °FCool.3 mph42%30.14 "HgN/A
4:00 PM49 °FCool.3 mph50%30.13 "HgN/A
3:00 PM51 °FCool.7 mph49%30.13 "HgN/A
2:00 PM45 °FRain. Overcast.3 mph72%30.14 "Hg12 mi
1:00 PM47 °FCool.9 mph57%30.13 "HgN/A
12:00 PM48 °FCool.3 mph63%30.11 "HgN/A
11:00 AM48 °FCool.5 mph60%30.11 "HgN/A
10:00 AM47 °FCool.2 mph62%30.08 "HgN/A
9:00 AM45 °FCool.5 mph65%30.08 "HgN/A
8:00 AM44 °FPartly sunny.3 mph67%30.08 "Hg11 mi
7:00 AM44 °FOvercast.5 mph67%30.05 "Hg11 mi
6:00 AM45 °FOvercast.5 mph65%30.03 "Hg9 mi
4:00 AM46 °FOvercast.6 mph66%29.99 "Hg9 mi
3:00 AM46 °FCool.5 mph69%29.98 "HgN/A
2:00 AM47 °FOvercast.3 mph72%29.98 "Hg6 mi
1:00 AM48 °FCool.3 mph74%29.96 "HgN/A
12:00 AM49 °FCool.5 mph82%29.93 "HgN/A
11:00 PM
Fri, Apr 17
49 °FOvercast.3 mph86%29.90 "Hg6 mi
10:00 PM50 °FCool.3 mph91%29.89 "HgN/A
9:00 PM52 °FCool.3 mph92%29.86 "HgN/A
Weather by CustomWeather, © 2015

See weather overviewHow to use our weather pages